Location: *
(13.0000°N, 151.6000°E)
Time: 04:37:51
(UTC+00:00)

GPS 2-18 Rocket1 - Pass Details

Date: 01 April 2020
Orbit: 459 x 516 km, 20.9° (Epoch: 25 May)

Event Time Altitude Azimuth Distance (km) Brightness Sun altitude
Exits shadow 19:24:29 - 286° (WNW) 1,977 5.6 -6.8°
Reaches altitude 10° 19:25:12 10° 286° (WNW) 1,698 5.2 -6.7°
Maximum altitude 19:29:08 85° 198° (SSW) 498 3.1 -5.7°
Drops below altitude 10° 19:32:59 10° 110° (ESE) 1,665 7.0 -4.8°
Sets 19:35:11 0° 109° (ESE) 2,534 8.1 -4.2°
